This demonstration page uses our WeatherBlox Daily Observations layout. Learn more.

41.55636, -103.73856

Hourly Observations for January 25, 2018

Temp ( °F °C ) Dew Point ( °F °C ) Humidity (%) Winds ( mph kmh ) Pressure ( in mb ) Visibility ( mi km ) Precip ( " mm )
12:53 am 00:53 Clear 26 -3.3 22 -5.6 84 84 E 3 6 30.03 1017 10 16.09344 0 0
1:53 am 01:53 Clear 26 -3.3 21 -6.1 81 81 E 3 6 30.03 1017 10 16.09344 0 0
2:53 am 02:53 Clear 27 -2.8 21 -6.1 78 78 N 3 6 30 1016 10 16.09344 0 0
3:53 am 03:53 Clear 25 -3.9 21 -6.1 85 85 Calm 30 1016 10 16.09344 0 0
4:53 am 04:53 Clear 25 -3.9 21 -6.1 85 85 N 3 6 29.97 1015 10 16.09344 0 0
5:53 am 05:53 Clear 24 -4.4 20 -6.7 84 84 N 5 7 29.97 1015 10 16.09344 0 0
6:53 am 06:53 Clear 23 -5 20 -6.7 88 88 NNW 6 9 29.97 1015 10 16.09344 0 0
7:53 am 07:53 Sunny 22 -5.6 19 -7.2 89 89 NNE 5 7 29.97 1015 10 16.09344 0 0
8:53 am 08:53 Sunny 26 -3.3 22 -5.6 84 84 NNE 5 7 29.94 1014 10 16.09344 0 0
9:53 am 09:53 Sunny 29 -1.7 24 -4.4 82 82 Calm 29.94 1014 10 16.09344 0 0
10:53 am 10:53 Sunny 32 0 26 -3.3 79 79 Calm 29.91 1013 10 16.09344 0 0
11:53 am 11:53 Sunny 35 1.7 26 -3.3 70 70 Calm 29.85 1011 10 16.09344 0 0
12:53 pm 12:53 Sunny 36 2.2 26 -3.3 67 67 Calm 29.8 1009 10 16.09344 0 0
1:53 pm 13:53 Sunny 34 1.1 27 -2.8 76 76 ESE 7 11 29.77 1008 10 16.09344 0 0
2:53 pm 14:53 Sunny 34 1.1 26 -3.3 73 73 ESE 5 7 29.74 1007 10 16.09344 0 0
3:53 pm 15:53 Sunny 32 0 27 -2.8 82 82 Calm 29.74 1007 10 16.09344 0 0
4:53 pm 16:53 Sunny 31 -0.6 27 -2.8 85 85 Calm 29.74 1007 10 16.09344 0 0
5:53 pm 17:53 Clear 29 -1.7 25 -3.9 85 85 NNW 7 11 29.74 1007 10 16.09344 0 0
6:53 pm 18:53 Clear 28 -2.2 25 -3.9 88 88 WNW 8 13 29.74 1007 10 16.09344 0 0
7:53 pm 19:53 Clear 28 -2.2 24 -4.4 85 85 WSW 3 6 29.77 1008 10 16.09344 0 0
8:53 pm 20:53 Clear 25 -3.9 22 -5.6 88 88 NNW 12 19 29.77 1008 10 16.09344 0 0
9:53 pm 21:53 Clear 28 -2.2 24 -4.4 85 85 NNW 12 19 29.77 1008 10 16.09344 0 0
10:53 pm 22:53 Clear 28 -2.2 23 -5 81 81 NNE 3 6 29.74 1007 10 16.09344 0 0
11:53 pm 23:53 Clear 23 -5 20 -6.7 88 88 Calm 29.77 1008 10 16.09344 0 0

Powered by AerisWeather